KK7UNF Weather Reports


time (UTC)temp
F
wind
direction
speed
knots
gust
knots
rain 1hr
in
rain 24hr
in
rain mn
in
humidity
%
barometer
mb
20260503194545 75 41 2.6 5.2 0.00 0.00 0.00 59 1013.6
20260503193057 74 28 1.7 8.7 0.00 0.00 0.00 63 1013.8
20260503191545 72 57 2.6 6.1 0.00 0.00 0.00 64 1014.0
20260503190053 70 19 0.9 6.1 0.00 0.00 0.00 67 1014.2
20260503184541 69 30 2.6 7.0 0.00 0.00 0.00 69 1014.3
20260503183055 67 17 4.3 7.8 0.00 0.00 0.00 68 1014.4
20260503181540 66 5 1.7 7.0 0.00 0.00 0.00 76 1014.5
20260503180051 64 30 0.9 4.3 0.00 0.00 0.00 77 1014.5
20260503174536 63 0 1.7 6.1 0.00 0.00 0.00 79 1014.7
20260503173103 62 52 0.9 4.3 0.00 0.00 0.00 80 1014.9
20260503171549 60 39 2.6 7.0 0.00 0.00 0.00 84 1015.0
20260503081546 55 0 0.0 0.0 0.00 0.00 0.00 84 1015.3
20260503071547 57 0 0.0 0.0 0.00 0.00 0.00 81 1015.2
20260503054541 60 0 0.0 0.0 0.00 0.00 0.00 76 1015.1
20260503053045 61 0 0.0 0.0 0.00 0.00 0.00 75 1015.3
20260503051541 61 0 0.0 0.0 0.00 0.00 0.00 74 1015.2
20260503050041 62 0 0.0 0.0 0.00 0.00 0.00 73 1015.1
20260503044541 62 0 0.0 0.0 0.00 0.00 0.00 71 1015.0
20260503043040 63 0 0.0 0.0 0.00 0.00 0.00 70 1014.9
20260503041540 64 0 0.0 0.0 0.00 0.00 0.00 68 1014.8
20260503040041 65 298 0.0 2.6 0.00 0.00 0.00 66 1014.6
20260503034541 65 0 0.0 1.7 0.00 0.00 0.00 65 1014.4
20260503033045 66 0 0.0 0.0 0.00 0.00 0.00 65 1014.2
20260503031540 67 0 0.0 0.9 0.00 0.00 0.00 64 1013.9
20260503030042 68 0 0.0 1.7 0.00 0.00 0.00 64 1013.8
20260503024547 69 0 0.0 2.6 0.00 0.00 0.00 65 1013.8
20260503023042 69 14 0.9 3.5 0.00 0.00 0.00 65 1013.8
20260503021547 70 45 0.9 7.0 0.00 0.00 0.00 64 1013.7
20260503020050 70 44 0.9 5.2 0.00 0.00 0.00 64 1013.8
20260503014606 70 49 0.0 4.3 0.00 0.00 0.00 66 1013.7
20260503013039 70 44 0.0 9.6 0.00 0.00 0.00 67 1013.7
20260503011555 71 0 1.7 7.0 0.00 0.00 0.00 65 1013.7
20260503010050 71 29 2.6 9.6 0.00 0.00 0.00 67 1013.7
20260503004555 72 306 1.7 8.7 0.00 0.00 0.00 65 1013.9
20260503003040 72 331 1.7 7.8 0.00 0.00 0.00 66 1014.0
20260503001540 72 103 1.7 8.7 0.00 0.00 0.00 67 1013.8
20260503000042 72 24 2.6 7.8 0.00 0.00 0.00 67 1013.9
20260502234543 72 13 3.5 8.7 0.00 0.00 0.00 66 1014.0
20260502233045 72 311 0.9 8.7 0.00 0.00 0.00 66 1014.4
20260502231541 72 298 1.7 5.2 0.00 0.00 0.00 61 1014.5
20260502230042 72 309 1.7 7.8 0.00 0.00 0.00 66 1014.6
20260502224540 72 33 0.9 7.0 0.00 0.00 0.00 68 1014.9
20260502223042 72 0 4.3 10.4 0.00 0.00 0.00 65 1015.1
20260502221543 72 360 2.6 9.6 0.00 0.00 0.00 67 1015.1
20260502220043 72 352 4.3 10.4 0.00 0.00 0.00 68 1015.4
20260502214541 73 341 1.7 8.7 0.00 0.00 0.00 67 1015.4
20260502213041 73 267 0.9 8.7 0.00 0.00 0.00 67 1015.5
20260502211543 73 22 2.6 7.8 0.00 0.00 0.00 68 1015.7
20260502210045 72 267 2.6 8.7 0.00 0.00 0.00 66 1015.8
20260502204543 72 30 2.6 8.7 0.00 0.00 0.00 66 1015.9
20260502203041 71 44 3.5 8.7 0.00 0.00 0.00 67 1016.2
20260502201540 70 11 2.6 7.0 0.00 0.00 0.00 70 1016.4
20260502200041 68 334 5.2 10.4 0.00 0.00 0.00 73 1016.6